Regional Weather Roundup
Issued by NWS

Home | Current Version | Previous Version | Graphics & Text | Print | Product List | Glossary On
Versions: 1 2 3 4 5 6 7 8 9 10 11 12 13 14 15 16 17 18 19 20 21 22 23 24 25 26 27 28 29 30 31 32 33 34 35 36 37 38 39 40 41 42 43 44 45 46 47 48 49 50
000
ASUS43 KOAX 242310
RWRNE

WEATHER ROUNDUP FOR NEBRASKA
NATIONAL WEATHER SERVICE OMAHA NE
600 PM CDT FRI MAR 24 2017

NOTES: SATELLITE DATA IS BEING USED TO AUGMENT CLOUD COVER ABOVE
       12000 FEET.
       "FAIR" INDICATES FEW OR NO CLOUDS BELOW 12,000 FEET WITH NO
       SIGNIFICANT WEATHER AND/OR OBSTRUCTIONS TO VISIBILITY.

  * THESE STATIONS DO NOT REPORT WEATHER SUCH AS RAIN...SNOW OR FOG.

NEZ001>004-019>022-054>056-250000-
NEBRASKA PANHANDLE

CITY           SKY/WX    TMP DP  RH WIND       PRES   REMARKS
SCOTTSBLUFF    PTSUNNY   57  27  31 NE12      30.09S
ALLIANCE       PTSUNNY   57  28  33 NE14G22   30.08R
CHADRON        MOSUNNY   60  27  28 E9        30.07F
KIMBALL        SUNNY     53  31  42 NE16G26   30.11R
SIDNEY         PTSUNNY   54  30  40 N15G25    30.10R
$$

NEZ057>060-069>072-079>082-250000-
SOUTHWEST NEBRASKA

CITY           SKY/WX    TMP DP  RH WIND       PRES   REMARKS
NORTH PLATTE   LGT RAIN  46  41  82 NE6       30.07R
IMPERIAL       LGT RAIN  44  38  79 N21       30.07S
LEXINGTON      DRIZZLE   41  38  90 N17G31    30.01F
MCCOOK         CLOUDY    41  40  96 N15       30.02R
OGALLALA       PTSUNNY   53  35  50 E12G20    30.08R
$$

NEZ005>010-023>029-035>040-094-250000-
NORTH CENTRAL NEBRASKA

CITY           SKY/WX    TMP DP  RH WIND       PRES   REMARKS
VALENTINE      PTSUNNY   56  27  32 NE20G28   30.07R
AINSWORTH      CLOUDY    49  35  58 NE15      30.06S
BROKEN BOW     RAIN      43  40  89 N8        30.05R
O`NEILL        CLOUDY    43  39  86 N14G20    30.06R
ORD            RAIN      41  38  89 NE7       30.04R FOG
THEDFORD       CLOUDY    52  32  46 NE21G29   30.05S
$$

NEZ041-046>049-061>064-073>077-083>087-250000-
SOUTH CENTRAL NEBRASKA

CITY           SKY/WX    TMP DP  RH WIND       PRES   REMARKS
GRAND ISLAND   CLOUDY    40  40 100 N18       29.99S WCI  31
AURORA         LGT RAIN  40  38  95 N18       29.98R WCI  31
HASTINGS       CLOUDY    41  37  86 N23G30    29.97S
HEBRON         CLOUDY    44  40  87 N17G24    29.91F
HOLDREGE       CLOUDY    40  37  92 N22       30.00R WCI  29
KEARNEY *      CLOUDY    39  36  87 N20G25    29.99F WCI  30
YORK           CLOUDY    41  39  93 NE22G29   29.97R
$$

NEZ011>018-030>034-042>045-250000-
NORTHEAST NEBRASKA

CITY           SKY/WX    TMP DP  RH WIND       PRES   REMARKS
NORFOLK        CLOUDY    41  37  86 NE17G24   30.02R
ALBION         DRIZZLE   42  38  85 N9        30.02S
BLAIR          HVY RAIN  43  41  95 N15       29.97R
FREMONT        LGT RAIN  41  41 100 N13G23    29.97F
TEKAMAH        LGT RAIN  42  40  92 N13       30.00F FOG
WAYNE          CLOUDY    41  40  95 N17       30.03R
$$

NEZ050>053-065>068-078-088>093-250000-
SOUTHEAST NEBRASKA

CITY           SKY/WX    TMP DP  RH WIND       PRES   REMARKS
LINCOLN        CLOUDY    44  41  89 N20G30    29.95F
OMAHA EPPLEY   LGT RAIN  44  40  85 N16       29.97R FOG
BEATRICE       CLOUDY    46  44  93 NE16G24   29.91R
FALLS CITY     LGT RAIN  54  54 100 N14       29.85F FOG
NEBRASKA CITY  LGT RAIN  46  46  99 NE15      29.92R
PLATTSMOUTH    LGT RAIN  44  41  90 N15G21    29.93F
$$

NEZ044-045-051>053-067-250000-
OMAHA AREA

CITY           SKY/WX    TMP DP  RH WIND       PRES   REMARKS
OMAHA EPPLEY   LGT RAIN  44  40  85 N16       29.97R FOG
BLAIR          HVY RAIN  43  41  95 N15       29.97R
FREMONT        LGT RAIN  41  41 100 N13G23    29.97F
MILLARD        LGT RAIN  46  44  91 N7G16     29.97R
OFFUTT AFB     CLOUDY    45  41  87 N9G22     29.94F
PLATTSMOUTH    LGT RAIN  44  41  90 N15G21    29.93F
WAHOO          LGT RAIN  42  40  94 N14G23    29.98R
$$




USA.gov is the U.S. government's official web portal to all federal, state and local government web resources and services.